TimeEST,TemperatureF,Dew PointF,Humidity,Sea Level PressureIn,VisibilityMPH,Wind Direction,Wind SpeedMPH,Gust SpeedMPH,PrecipitationIn,Events,Conditions,WindDirDegrees,DateUTC
1:53 AM,35.1,23.0,61,30.06,10.0,North,16.1,27.6,N/A,,Overcast,350,2014-02-06 06:53:00
2:53 AM,34.0,21.9,61,30.10,10.0,NNW,16.1,-,N/A,,Overcast,340,2014-02-06 07:53:00
3:53 AM,30.9,19.9,64,30.14,10.0,North,13.8,21.9,N/A,,Partly Cloudy,350,2014-02-06 08:53:00
4:53 AM,30.0,18.0,61,30.17,10.0,North,13.8,24.2,N/A,,Clear,360,2014-02-06 09:53:00
5:53 AM,28.9,17.1,61,30.21,10.0,North,18.4,27.6,N/A,,Partly Cloudy,10,2014-02-06 10:53:00
6:53 AM,28.0,16.0,61,30.23,10.0,North,17.3,23.0,N/A,,Scattered Clouds,350,2014-02-06 11:53:00
7:53 AM,28.0,16.0,61,30.27,10.0,NNW,16.1,21.9,N/A,,Mostly Cloudy,340,2014-02-06 12:53:00
8:53 AM,28.0,17.1,63,30.28,10.0,North,15.0,-,N/A,,Mostly Cloudy,360,2014-02-06 13:53:00
9:53 AM,30.0,17.1,59,30.30,10.0,North,12.7,21.9,N/A,,Clear,10,2014-02-06 14:53:00
10:53 AM,32.0,18.0,56,30.30,10.0,North,9.2,20.7,N/A,,Clear,360,2014-02-06 15:53:00
11:53 AM,32.0,18.0,56,30.30,10.0,North,12.7,21.9,N/A,,Clear,350,2014-02-06 16:53:00
12:53 PM,33.1,18.0,54,30.27,10.0,NNW,9.2,-,N/A,,Clear,340,2014-02-06 17:53:00
1:53 PM,34.0,19.0,54,30.29,10.0,North,6.9,-,N/A,,Clear,350,2014-02-06 18:53:00
2:53 PM,34.0,18.0,52,30.27,10.0,North,4.6,-,N/A,,Clear,350,2014-02-06 19:53:00
3:53 PM,34.0,18.0,52,30.28,10.0,NW,6.9,-,N/A,,Clear,320,2014-02-06 20:53:00
4:53 PM,32.0,19.0,59,30.31,10.0,Calm,Calm,-,N/A,,Clear,0,2014-02-06 21:53:00
5:53 PM,30.9,19.9,64,30.30,10.0,Calm,Calm,-,N/A,,Clear,0,2014-02-06 22:53:00
6:53 PM,30.9,21.0,67,30.31,10.0,NW,3.5,-,N/A,,Clear,320,2014-02-06 23:53:00
7:53 PM,30.9,19.9,64,30.31,10.0,North,3.5,-,N/A,,Clear,350,2014-02-07 00:53:00
8:53 PM,30.9,21.0,67,30.29,10.0,Calm,Calm,-,N/A,,Clear,0,2014-02-07 01:53:00
9:53 PM,30.9,19.9,64,30.33,10.0,NW,4.6,-,N/A,,Clear,310,2014-02-07 02:53:00
10:53 PM,30.9,18.0,59,30.33,10.0,Calm,Calm,-,N/A,,Partly Cloudy,0,2014-02-07 03:53:00
11:53 PM,30.0,19.9,66,30.31,10.0,Calm,Calm,-,N/A,,Mostly Cloudy,0,2014-02-07 04:53:00